GFSSE_sfc_rhum_057.txt.gz
RH
64 53 76 78 76 75 74 76 78 80 78 78 78 77 72 72 76 74 72 72 69 68 69 68 73 71 72 72 73 74 75 76 74 73 74 74 73 73 71 66 69 50 74
44 50 79 77 75 74 74 76 78 78 79 77 75 72 73 76 75 71 74 71 70 67 71 69 68 72 70 71 69 69 73 77 73 73 73 72 72 72 74 73 71 63 74
36 46 59 80 76 75 75 76 76 76 75 74 74 74 75 75 71 72 72 70 70 73 66 67 71 68 70 70 71 71 73 75 74 71 64 53 56 73 71 72 73 74 74
31 33 44 84 79 77 78 77 75 74 74 74 75 75 75 72 71 69 69 72 70 70 70 68 67 70 71 72 72 74 76 74 71 63 56 57 46 74 72 74 74 73 76
28 33 61 80 79 77 78 77 78 76 76 76 75 74 73 72 70 69 69 69 71 70 69 69 67 68 69 70 72 74 73 72 65 60 50 66 50 65 73 74 74 72 74
26 35 70 78 76 77 77 76 76 75 75 75 74 73 72 71 69 69 70 69 67 69 68 68 66 66 67 68 69 71 69 65 63 54 50 58 53 73 72 74 72 74 73
27 39 50 79 77 77 77 75 75 75 74 74 73 73 72 72 71 70 70 69 68 67 69 67 66 65 65 68 70 67 65 60 59 63 62 52 59 76 73 72 74 73 71
27 32 50 75 76 77 75 75 74 74 74 74 73 72 72 72 71 69 67 66 66 66 69 67 66 68 71 71 71 66 65 61 55 61 50 54 74 75 72 74 71 69 73
25 34 45 51 65 76 76 74 74 74 74 73 74 73 73 71 69 67 66 65 64 64 65 65 66 68 70 72 70 67 63 64 54 50 39 49 78 73 73 72 73 74 75
27 30 39 45 45 51 56 75 74 73 72 72 73 73 71 66 63 63 73 67 63 62 64 66 67 68 72 73 69 67 68 63 30 35 42 57 78 73 72 72 73 74 73
28 28 29 32 40 48 56 67 72 72 72 74 70 70 70 40 48 48 68 64 62 63 63 64 67 68 72 72 70 69 68 31 26 31 42 77 76 71 72 73 74 72 72
29 26 25 30 35 38 35 58 56 53 47 44 43 55 76 57 54 43 57 66 64 64 64 64 66 66 68 43 46 65 44 29 29 34 49 76 72 72 72 73 73 73 73
27 25 26 34 39 35 46 41 39 51 60 43 48 52 44 41 42 43 46 48 50 63 42 49 52 57 66 47 40 34 30 29 28 37 65 78 71 72 70 72 71 72 71
29 27 27 34 41 40 38 44 56 71 40 36 42 48 49 62 60 62 74 49 67 53 44 71 86 62 52 80 37 40 32 28 25 37 60 74 71 68 70 74 74 74 73
29 28 30 38 47 46 66 66 44 36 31 33 44 46 42 66 64 62 48 81 68 62 33 66 48 50 39 39 53 50 34 35 29 34 46 68 67 69 72 72 69 70 69
31 31 32 39 47 46 61 60 54 41 45 32 34 42 47 67 66 69 44 70 60 67 60 57 57 48 46 38 42 51 52 40 42 52 43 56 70 65 63 64 64 64 65
30 32 37 41 43 50 56 48 52 64 33 56 33 50 47 54 52 74 47 74 70 52 48 44 38 33 30 39 54 50 38 48 38 44 62 47 58 72 67 66 65 65 65
30 37 39 33 41 47 49 52 47 58 43 61 37 43 50 53 57 58 58 63 40 46 54 72 41 49 31 43 60 52 52 42 39 40 60 62 60 45 68 71 72 71 70
32 38 41 40 43 48 53 48 44 49 58 58 58 59 54 53 55 51 50 54 59 43 61 43 54 48 33 38 51 41 46 37 51 31 37 43 44 62 64 77 76 73 69
33 38 43 40 50 57 52 53 41 43 51 63 60 68 56 62 52 55 68 49 50 53 37 64 43 58 48 54 26 34 44 35 32 34 33 30 35 36 55 60 64 64 77
34 40 46 50 61 52 49 48 44 43 46 56 47 49 54 53 55 58 74 53 52 61 88 48 40 47 33 37 31 32 34 32 34 30 27 28 33 31 31 35 41 48 56
36 42 52 55 64 59 48 53 45 44 36 36 36 50 49 49 57 54 77 52 55 50 54 51 52 66 38 42 61 41 44 37 28 28 27 27 32 28 31 35 37 42 39
37 43 53 61 64 63 58 51 50 46 43 39 49 43 48 49 51 53 56 69 57 63 47 57 54 64 62 35 46 52 44 70 37 29 35 30 38 35 32 37 35 39 42
35 40 52 59 65 62 64 54 66 48 44 38 41 39 45 51 50 51 57 56 62 72 69 57 56 67 68 42 34 32 53 46 60 67 31 31 33 33 36 33 34 36 41
33 38 43 62 68 65 67 63 52 59 40 37 34 59 58 63 52 46 57 57 60 52 60 71 60 63 45 59 34 34 44 33 46 61 41 34 32 29 30 35 29 29 40
31 35 42 63 72 70 68 68 67 65 57 38 43 44 42 43 47 54 51 67 61 57 60 57 61 61 71 52 44 39 34 40 47 32 31 41 33 32 27 27 31 30 30

GFSSE_sfc_rhum_060.txt.gz
RH
66 63 77 75 76 77 77 80 78 79 80 80 79 76 75 77 74 76 75 71 70 72 70 74 73 74 73 74 74 76 77 78 79 78 75 75 77 76 74 72 70 64 75
52 59 80 80 76 77 78 79 80 81 80 80 78 76 76 76 73 75 73 71 70 73 70 69 73 72 72 70 72 74 77 79 78 73 72 73 71 73 77 73 72 70 75
48 62 68 80 78 76 76 78 78 79 78 78 77 76 76 72 74 73 72 72 72 70 69 71 69 72 72 71 72 74 75 75 73 68 68 63 68 72 73 73 74 75 74
45 52 60 83 80 76 77 77 77 76 75 76 77 76 75 72 71 71 71 71 74 72 70 70 71 70 71 73 75 76 74 72 68 66 64 56 56 74 73 74 74 73 72
37 44 68 82 81 78 78 78 77 76 75 76 75 75 74 73 73 71 71 72 70 71 70 68 70 69 72 72 73 72 71 71 66 63 60 76 68 69 72 75 72 74 75
38 50 75 81 78 78 77 77 77 78 76 76 75 74 72 72 70 70 69 69 70 70 69 67 67 68 68 69 70 70 69 68 65 61 59 70 78 73 73 73 74 75 77
44 54 62 81 80 79 78 78 77 76 76 75 75 74 73 72 70 72 71 68 70 69 67 67 67 67 68 69 66 68 68 63 65 68 65 70 75 78 72 74 70 73 76
40 46 60 77 78 79 76 77 76 76 75 76 75 75 74 74 73 70 68 68 68 68 67 67 69 69 69 69 65 66 64 64 56 64 67 70 79 77 73 70 72 74 70
35 47 56 60 72 76 78 77 76 76 76 78 77 77 76 73 70 69 70 68 67 68 66 67 68 71 72 70 65 66 65 70 59 63 56 71 80 74 71 74 75 75 74
36 40 52 56 58 64 65 74 74 75 77 74 75 76 75 71 66 68 74 71 66 66 67 68 70 72 72 70 68 68 68 67 53 57 67 75 80 72 71 74 75 73 75
34 37 39 43 57 70 69 69 73 73 74 75 72 73 74 58 59 59 70 71 65 65 66 66 67 73 71 68 68 67 66 65 42 59 68 82 78 72 72 73 72 73 72
32 31 32 42 48 56 47 72 72 65 62 60 59 76 71 73 62 53 65 71 67 66 66 66 67 68 69 69 67 69 67 43 49 60 72 82 78 72 72 72 73 74 73
28 28 34 46 53 48 62 61 59 61 61 61 69 75 77 66 68 82 69 62 69 69 59 65 66 79 79 78 65 54 53 46 52 58 75 80 78 70 73 71 73 72 71
30 31 33 41 57 55 53 57 77 77 60 51 58 75 71 68 77 94 86 81 88 72 81 77 86 79 87 85 54 49 46 43 52 64 78 82 79 72 71 72 73 73 71
28 33 37 46 69 72 74 70 64 64 59 53 57 62 78 74 90 88 91 86 80 74 74 79 74 70 81 59 68 57 46 50 47 55 72 78 79 77 73 70 70 70 70
31 36 42 46 59 68 72 77 76 57 54 50 52 61 90 86 86 76 81 84 96 80 75 70 66 66 60 60 60 60 55 54 54 58 62 74 76 76 76 69 67 66 66
32 38 44 48 48 62 68 65 68 53 45 48 57 66 59 77 83 86 88 78 72 70 74 68 62 61 64 56 67 63 59 57 61 64 59 63 71 74 72 70 70 68 66
34 47 46 34 45 56 68 65 66 60 60 61 59 63 60 65 77 87 87 92 74 76 60 67 71 58 64 61 68 71 67 56 65 64 65 62 69 60 74 75 75 72 68
40 51 50 50 51 58 73 64 70 69 67 59 60 59 67 66 66 90 90 91 78 83 72 66 68 67 55 62 58 67 64 61 53 49 64 66 66 68 70 79 81 80 71
41 48 52 52 63 67 67 71 72 62 68 69 67 71 68 67 65 77 80 71 74 75 74 67 66 63 66 60 36 47 53 59 61 58 51 53 62 66 64 74 82 76 80
41 49 57 62 72 66 66 64 74 60 72 72 72 82 73 72 67 79 83 71 76 79 78 76 65 64 62 61 65 64 60 50 48 59 52 52 48 55 62 71 73 70 73
43 52 61 65 74 68 66 71 65 70 70 80 67 75 66 71 71 72 77 72 81 87 80 80 86 78 68 66 70 72 70 64 57 39 54 47 49 47 48 50 63 66 72
45 54 60 68 73 69 71 68 73 72 70 65 68 64 64 65 71 75 77 74 78 84 79 75 80 80 78 69 64 71 76 69 69 60 51 56 55 52 58 57 54 60 60
44 50 60 67 74 69 73 68 76 68 71 62 73 66 65 67 67 71 72 72 78 88 80 76 73 78 72 77 68 55 65 65 73 71 65 61 55 48 53 63 55 59 64
42 47 55 67 75 71 73 74 67 72 60 66 58 67 75 78 70 62 73 74 82 85 86 80 76 79 85 74 75 67 68 69 73 69 70 69 62 60 63 60 57 59 62
37 44 53 69 75 75 74 75 77 74 73 64 67 61 66 65 67 72 72 78 79 80 79 80 79 77 82 86 76 79 65 68 66 70 67 63 64 60 58 62 57 57 64

GFSSE_sfc_rhum_063.txt.gz
RH
89 85 82 75 75 74 75 78 80 81 80 80 77 75 78 76 77 74 72 72 73 75 76 75 75 75 74 75 77 76 76 80 80 78 76 73 76 76 76 74 72 68 75
76 78 83 79 76 77 80 80 80 81 80 78 77 78 75 76 76 74 74 71 74 73 72 74 75 72 72 73 76 76 76 78 79 76 72 72 73 75 77 74 74 73 75
72 79 77 82 78 78 81 80 80 79 77 79 78 78 74 76 75 74 74 71 71 73 71 71 73 72 72 73 75 75 75 74 75 72 73 74 71 73 73 74 74 74 75
74 77 77 85 81 78 80 81 81 77 77 78 79 79 76 74 73 72 72 74 72 74 72 71 72 71 72 76 76 74 71 71 71 71 68 68 62 73 73 73 71 72 77
70 73 77 84 82 78 78 79 80 78 76 78 77 76 74 74 72 73 71 70 72 70 71 70 70 72 72 73 72 72 71 73 72 66 71 83 79 70 74 73 74 74 75
74 80 82 82 79 78 79 79 77 78 78 77 77 75 74 73 71 70 71 71 70 69 68 68 70 69 71 71 72 74 71 72 67 70 77 80 84 75 74 72 76 75 76
80 81 80 83 81 79 78 78 78 77 76 76 78 74 73 72 74 71 69 71 69 68 68 67 68 68 68 68 71 70 70 70 68 76 79 83 80 76 72 70 75 76 70
73 79 77 80 80 79 77 77 78 76 76 77 76 74 74 74 72 70 69 69 69 68 68 69 68 68 68 68 68 69 72 69 66 75 78 82 82 77 73 76 74 69 71
67 76 82 80 77 77 79 77 77 77 76 76 75 75 74 71 70 69 70 69 68 67 67 68 69 69 70 67 67 70 70 70 74 75 70 82 81 71 73 72 74 74 75
68 71 76 83 84 84 81 76 76 77 77 76 76 73 72 70 68 68 77 73 67 67 67 68 69 71 68 67 67 70 70 67 69 74 80 82 82 73 73 75 72 76 75
59 62 70 75 82 87 84 76 78 76 75 76 77 72 76 78 76 72 74 71 67 67 67 68 70 71 70 70 69 66 66 70 68 77 83 84 80 71 72 71 76 70 72
61 62 60 70 75 76 65 86 88 79 86 90 85 83 88 84 79 72 74 72 66 67 67 68 70 75 75 86 83 75 77 61 70 79 85 84 80 71 73 74 74 75 73
52 52 55 63 69 67 75 86 88 87 87 82 85 81 85 81 85 90 87 79 82 73 73 72 77 91 88 93 85 75 70 62 74 77 84 84 78 71 71 74 75 72 73
43 50 54 60 62 66 74 78 87 83 84 80 80 84 94 89 82 92 92 90 91 87 85 90 90 92 83 87 81 65 58 65 79 86 89 84 78 73 72 72 72 72 72
41 49 52 65 70 70 76 79 77 80 78 74 76 83 94 95 94 94 95 93 88 88 88 86 88 84 92 76 67 53 53 63 74 83 96 81 82 77 73 74 72 74 72
43 47 65 65 71 76 75 78 78 72 69 67 77 69 81 95 96 95 89 90 95 92 81 88 85 79 79 69 58 60 56 58 65 79 88 89 83 82 76 70 71 70 68
44 46 64 65 57 80 70 75 78 66 57 73 72 81 85 90 87 91 94 95 91 90 79 78 70 72 72 67 72 64 65 61 60 64 75 83 83 80 77 71 73 73 68
49 54 51 48 68 72 69 80 74 69 72 66 72 75 77 82 86 92 90 90 83 83 66 63 68 66 71 74 73 72 68 68 65 64 73 74 80 69 77 77 78 77 70
49 54 56 56 67 66 74 75 73 65 74 71 74 75 73 75 85 90 88 89 88 87 77 65 73 63 69 74 62 64 69 68 64 59 71 73 78 77 82 81 82 81 71
50 52 63 57 70 71 77 75 74 64 79 81 80 76 80 76 79 89 91 85 89 79 70 81 64 67 67 60 47 57 70 70 70 72 71 66 76 75 79 83 92 90 84
52 54 67 71 71 78 86 85 84 84 77 86 79 82 80 77 79 86 89 83 86 75 83 82 78 76 62 62 68 64 65 60 58 68 62 69 72 72 77 80 90 87 84
55 53 70 69 74 78 80 82 78 80 78 83 83 82 84 76 78 80 82 86 78 84 81 78 80 76 80 66 72 78 67 59 58 53 63 56 59 67 71 74 80 80 80
54 61 67 73 74 75 76 81 89 82 81 82 90 82 87 80 77 84 81 88 85 90 91 83 72 83 84 78 67 61 70 69 76 66 58 60 56 70 63 62 72 72 80
52 55 70 74 74 77 78 80 80 74 79 74 75 80 81 79 79 78 80 82 91 90 88 81 81 82 79 79 77 59 70 68 61 68 68 63 59 58 62 69 63 59 66
51 53 66 77 73 66 76 76 80 82 72 80 67 70 86 89 80 77 79 82 87 88 88 86 80 82 89 91 82 77 67 70 65 72 74 72 70 66 63 67 64 67 61
50 52 61 79 74 71 76 88 80 80 79 67 66 85 76 91 83 88 79 85 86 90 87 86 87 80 85 89 88 88 72 69 70 70 79 76 66 62 68 65 64 66 66

GFSSE_sfc_rhum_069.txt.gz
RH
93 86 79 75 76 78 76 77 76 73 76 80 75 77 74 73 73 74 76 78 76 77 77 76 75 72 71 74 74 75 76 75 74 75 75 75 74 75 75 75 71 70 74
81 85 81 77 75 78 79 78 78 74 78 79 76 79 73 72 74 79 74 73 76 76 75 75 75 75 73 72 73 76 76 75 74 74 74 72 73 71 70 73 71 67 74
82 85 81 81 77 78 80 79 77 74 78 77 76 76 74 76 73 74 72 71 74 74 72 73 74 74 74 74 74 75 75 76 75 75 75 82 73 72 71 72 71 69 66
85 90 85 84 82 79 79 78 76 74 79 76 77 77 75 75 74 72 73 73 70 72 73 72 72 73 73 72 73 75 75 74 72 76 81 74 60 67 72 73 72 76 77
87 90 82 82 81 79 78 77 76 75 78 75 77 74 74 73 73 73 72 73 71 72 72 72 73 73 72 73 70 73 75 74 74 76 82 87 81 71 73 74 68 70 76
88 88 79 78 77 79 78 78 76 75 76 75 75 74 74 72 70 72 70 70 73 70 72 71 71 71 71 71 69 72 74 75 78 84 88 85 86 70 71 72 66 67 72
92 87 80 80 78 78 78 77 76 76 77 77 74 73 71 72 72 71 70 68 68 69 69 69 71 74 71 69 69 72 76 76 88 91 89 88 82 76 72 74 67 66 67
91 92 87 80 77 76 75 77 77 76 76 76 74 74 74 70 73 72 70 69 68 67 67 70 70 75 73 71 75 74 76 75 82 90 90 91 80 74 75 67 74 73 75
88 94 93 88 79 77 78 78 76 76 76 75 74 76 76 73 71 70 70 68 66 67 67 68 70 72 71 71 71 73 74 78 91 91 82 89 81 76 68 72 73 71 70
94 93 96 94 93 91 85 76 75 77 76 74 75 71 72 69 70 71 75 72 67 67 68 70 71 71 69 71 72 73 73 77 87 88 91 89 80 70 73 75 74 75 71
93 98 97 97 97 95 90 79 74 75 73 72 74 73 80 92 84 79 75 70 68 68 68 69 69 69 69 68 70 75 78 89 90 92 94 86 80 72 72 74 75 73 74
94 99 98 97 97 95 78 94 93 85 94 94 91 90 93 92 90 80 74 69 68 69 69 71 68 70 77 87 84 80 82 84 91 93 95 85 78 70 74 70 72 75 74
95 92 97 97 96 94 94 98 99 97 97 96 92 94 93 91 95 93 93 89 89 77 90 78 81 91 88 92 86 90 84 85 94 92 89 85 78 72 72 74 74 72 74
91 87 91 94 96 95 98 99 98 98 97 94 92 92 98 97 96 96 97 94 93 92 88 93 94 90 90 87 81 83 81 87 96 97 94 83 80 71 73 74 71 73 73
85 85 87 91 94 96 97 98 98 97 96 90 93 92 95 95 96 96 96 96 92 93 91 77 90 85 88 77 78 76 79 87 94 99 99 77 82 75 72 72 73 73 73
73 80 85 87 89 95 97 96 98 96 93 88 89 92 92 95 96 97 95 94 95 94 94 90 89 85 89 86 78 80 84 88 92 96 98 92 79 79 75 74 73 75 71
68 70 82 85 86 93 94 93 91 91 83 86 86 86 91 92 91 94 95 94 93 94 89 90 88 88 86 78 82 80 81 85 89 94 95 97 91 79 76 72 73 73 71
64 72 76 66 81 84 93 90 86 84 84 85 84 82 92 91 91 94 94 95 93 94 91 93 86 91 85 80 82 81 78 80 83 88 91 93 96 91 86 79 78 75 70
64 72 75 74 83 83 85 85 78 79 82 83 87 91 92 89 90 94 94 94 92 94 91 79 87 83 85 82 80 84 85 82 77 70 82 84 88 89 90 86 86 83 72
65 68 68 72 77 80 95 85 80 82 89 86 86 95 92 90 88 92 93 92 92 88 84 84 79 81 81 81 63 73 81 84 86 84 81 73 83 82 85 86 91 94 83
64 66 67 73 81 82 91 88 89 89 91 88 86 90 95 90 87 90 91 89 92 90 90 81 78 78 78 78 77 78 78 76 80 84 83 86 84 82 87 87 91 94 94
64 65 70 72 79 82 82 90 86 88 92 92 87 92 94 87 88 88 92 95 82 86 85 82 78 89 84 80 75 84 76 63 70 76 81 78 84 85 84 83 87 90 93
62 66 70 72 76 83 82 90 96 89 88 94 93 91 91 89 90 86 88 92 92 91 89 79 81 82 78 84 78 75 84 74 87 73 70 77 76 83 88 85 82 84 86
58 62 67 71 75 84 83 87 89 88 87 88 92 92 90 87 87 88 87 87 91 94 91 89 88 87 79 76 85 71 81 75 72 66 70 75 73 69 81 87 82 84 86
54 61 63 72 73 77 81 75 87 90 83 82 89 88 93 94 88 86 87 87 91 92 92 89 90 91 92 88 89 89 80 80 84 78 72 71 76 76 76 78 78 78 79
52 60 65 74 75 79 80 85 85 86 88 87 90 92 95 97 95 90 88 91 89 92 92 91 90 91 93 94 94 94 80 70 73 84 85 85 81 69 72 75 76 76 75

GFSSE_sfc_rhum_072.txt.gz
RH
91 87 78 76 76 76 76 74 74 78 76 75 75 74 74 74 75 78 78 76 78 77 76 75 75 72 72 72 74 72 74 76 76 74 73 74 75 76 71 73 76 59 73
83 86 78 76 77 76 77 76 74 79 78 77 78 72 72 72 73 73 76 77 75 76 75 74 73 70 69 69 75 74 75 75 75 72 70 72 70 71 74 68 74 69 72
84 88 82 80 77 78 77 77 74 79 77 77 76 75 74 74 78 74 71 75 74 73 73 74 75 72 72 71 75 76 77 76 75 71 73 74 68 70 70 67 65 65 66
87 92 89 83 80 79 78 77 74 77 76 76 77 75 76 73 71 74 72 71 73 72 71 69 72 72 73 74 74 74 73 73 73 77 74 68 62 73 71 76 75 74 72
93 92 86 80 81 78 77 76 75 77 75 76 76 75 74 74 74 73 71 72 71 72 72 72 72 73 71 72 72 76 74 74 74 76 78 82 74 70 71 68 72 75 73
94 90 81 79 78 77 77 76 75 77 74 76 73 73 72 71 73 70 73 72 70 74 72 72 72 73 72 71 71 75 74 75 79 82 83 81 80 68 72 64 68 75 76
96 89 80 81 78 78 78 76 74 76 75 76 74 73 73 70 70 70 68 71 74 70 70 72 72 71 70 71 74 76 75 78 84 85 82 81 76 76 69 67 65 67 69
91 90 84 78 78 78 77 76 76 76 76 75 74 72 70 73 72 70 68 67 66 67 69 71 71 72 71 71 75 77 76 78 79 84 84 78 80 75 67 75 72 75 76
91 95 93 87 79 75 75 78 76 76 75 74 74 75 73 73 72 69 71 67 65 65 68 71 72 72 72 73 76 74 77 80 84 84 77 79 82 69 70 73 70 70 71
98 96 96 93 90 90 85 76 75 75 75 74 75 72 71 70 69 72 74 71 66 66 68 70 71 70 72 73 76 75 75 80 80 80 78 74 79 72 74 75 76 71 72
95 98 97 96 96 94 89 81 77 76 72 74 73 72 90 91 84 80 71 68 67 67 69 70 69 69 70 69 73 73 79 80 79 80 80 84 79 70 74 75 74 73 73
88 98 98 97 96 93 82 89 89 83 92 93 90 90 93 91 86 78 72 69 67 66 66 66 67 71 77 78 89 78 76 79 81 81 80 83 78 72 72 68 73 75 74
79 89 98 98 96 94 96 97 95 94 94 92 91 92 91 89 91 89 88 85 87 83 90 78 84 85 80 85 78 80 78 80 80 79 80 84 77 70 70 74 72 73 74
81 88 97 96 97 96 98 97 96 95 93 92 91 91 95 93 93 95 91 92 92 88 87 89 88 86 85 81 75 79 76 78 81 81 84 82 79 70 71 72 70 72 72
86 96 97 97 97 97 98 98 96 95 92 88 92 90 94 95 95 94 92 93 88 90 85 82 88 80 84 78 75 77 76 80 81 83 86 76 78 71 70 71 70 72 72
91 94 95 96 96 97 98 97 96 94 91 89 93 90 90 93 94 94 92 90 92 90 91 85 87 82 84 78 78 76 78 79 83 85 83 82 78 78 74 73 72 74 72
84 88 94 95 92 96 96 95 94 92 86 88 87 89 91 90 90 93 92 92 90 90 86 85 87 82 79 74 81 77 77 79 79 84 84 83 80 78 77 74 72 74 72
79 87 91 77 88 94 94 93 92 90 88 88 86 86 88 90 89 92 93 92 87 86 87 85 82 82 80 76 77 76 76 76 78 81 82 81 81 78 84 81 78 75 72
75 81 87 85 89 91 92 91 90 87 88 87 86 87 89 89 89 95 92 91 90 91 87 80 83 82 79 76 72 76 74 73 72 63 76 78 78 78 76 80 83 83 74
72 77 81 81 89 91 94 91 88 88 89 89 87 92 92 89 86 94 90 90 90 85 82 79 82 80 78 78 61 68 76 75 76 74 70 66 71 73 71 77 76 73 83
73 80 82 84 91 89 92 90 91 91 91 89 88 89 92 91 88 89 91 88 88 86 86 80 78 78 77 78 77 75 73 72 72 76 74 72 73 71 73 75 77 75 74
72 76 83 83 90 85 84 89 87 89 90 90 91 90 92 92 91 88 90 92 84 85 85 84 82 83 79 77 77 78 76 69 63 64 73 72 72 72 72 74 76 80 79
71 75 78 82 87 86 88 91 94 91 91 90 92 92 90 90 90 91 90 94 88 91 85 81 80 82 78 80 76 77 76 74 76 67 67 68 73 71 71 74 74 76 78
68 69 74 80 84 84 89 90 88 88 90 89 88 92 88 89 89 89 90 92 92 90 88 83 83 84 81 78 80 71 78 74 71 70 66 68 69 65 67 69 67 70 75
63 67 70 79 83 83 84 86 84 89 86 87 90 91 91 93 88 88 88 89 91 89 91 88 86 89 87 81 80 81 79 76 77 73 72 70 69 67 68 69 67 68 69
60 63 68 80 83 85 84 88 88 87 87 87 90 89 89 94 91 90 88 91 89 90 90 88 87 86 90 93 85 85 79 73 72 75 75 76 73 70 64 66 69 68 67

GFSSE_sfc_rhum_075.txt.gz
RH
68 68 79 77 75 74 73 76 76 76 76 75 75 74 74 75 78 76 76 78 76 76 76 76 73 74 72 73 74 74 77 75 75 73 75 74 71 72 74 65 66 52 75
58 64 80 79 75 76 74 75 79 77 77 76 73 73 72 72 75 78 75 75 75 74 74 71 70 65 72 74 74 75 75 74 75 72 67 69 72 68 73 73 68 63 73
58 58 64 81 77 77 76 75 79 76 78 76 74 72 74 78 72 72 75 74 73 74 72 74 72 72 72 74 76 75 76 75 73 72 69 50 58 67 64 63 64 65 65
54 52 60 84 82 77 76 74 78 75 77 76 76 76 72 71 73 71 72 74 73 72 70 74 72 73 74 73 74 73 74 74 73 68 49 52 49 74 75 75 74 73 75
58 56 63 80 80 78 77 75 78 75 76 76 75 75 74 76 75 71 72 72 73 72 74 72 71 71 73 72 73 74 74 74 71 57 55 60 56 61 71 73 69 74 68
56 53 71 78 77 77 77 76 77 75 76 74 75 75 73 74 71 73 72 71 72 73 73 72 71 72 69 74 74 73 75 77 68 60 60 66 60 65 65 71 75 70 70
53 55 58 81 78 76 76 75 76 74 76 75 76 74 71 72 70 71 72 72 71 70 71 71 70 71 72 75 75 74 76 76 59 59 62 59 65 70 64 66 67 73 75
53 53 58 77 78 78 76 75 76 76 75 76 73 72 74 73 73 68 67 68 67 68 70 70 70 71 73 76 77 76 76 70 56 57 59 62 76 72 74 72 75 76 73
54 56 58 58 71 77 76 76 76 76 75 75 77 74 73 73 70 70 68 65 66 70 70 72 73 74 74 76 75 76 78 75 58 56 50 55 78 72 72 69 69 70 70
58 56 59 60 60 62 63 75 75 75 73 77 73 74 72 70 69 70 73 71 67 68 70 71 71 73 74 75 75 74 76 71 52 49 49 52 79 73 73 74 70 71 73
61 60 60 58 65 73 67 67 72 74 74 72 70 82 73 61 58 55 69 68 67 70 70 72 70 71 70 73 75 74 66 47 46 49 49 80 77 71 72 73 72 75 70
71 62 60 63 66 64 58 68 70 60 65 69 66 71 63 65 61 56 64 68 66 68 68 67 70 74 58 48 67 69 47 52 49 50 48 78 74 74 66 69 75 73 75
69 63 62 68 70 63 68 60 59 60 62 66 73 70 69 63 62 57 59 56 59 67 52 54 54 50 58 54 51 50 54 51 46 48 62 77 71 69 70 74 71 74 74
70 69 64 66 71 69 65 58 62 62 61 58 65 74 71 61 66 71 59 62 63 56 62 62 53 61 61 61 54 56 54 47 43 47 60 76 74 69 70 71 71 72 72
72 69 66 71 76 76 76 65 63 63 57 59 63 68 65 62 68 64 65 60 61 59 54 58 59 57 63 56 55 58 54 53 50 45 48 75 76 72 70 70 70 72 72
66 68 64 68 74 75 72 78 69 64 61 59 62 64 73 63 68 61 63 62 61 59 57 58 62 58 58 53 59 58 55 50 54 55 46 51 76 78 75 73 72 72 73
64 65 68 69 69 76 77 71 66 60 56 59 59 68 70 69 70 73 63 63 60 65 68 64 63 60 52 52 60 56 52 55 48 54 49 49 50 76 77 75 73 72 73
59 69 68 59 66 70 71 69 63 60 60 60 60 62 70 70 72 73 63 59 59 61 59 57 55 54 52 50 54 52 52 50 52 53 50 51 49 47 64 82 81 78 73
59 66 69 67 67 70 73 64 66 68 62 60 60 60 71 69 71 71 64 60 67 60 57 53 56 57 53 50 46 49 49 49 50 40 51 54 52 52 47 68 78 79 76
55 64 67 66 71 74 69 70 63 63 63 64 62 60 68 65 70 72 63 66 64 58 57 53 65 58 54 52 42 45 50 49 50 50 48 45 49 53 50 58 55 51 75
54 63 69 72 76 72 68 64 65 62 63 62 62 69 69 71 70 74 66 66 65 62 63 64 60 64 54 57 52 46 47 49 48 48 46 46 47 47 49 52 56 50 49
54 62 70 73 77 74 64 68 63 64 61 59 65 68 69 71 75 69 71 66 67 59 70 69 65 54 53 54 51 53 47 41 38 38 42 45 48 44 44 48 53 58 58
54 62 68 74 76 74 70 69 72 71 70 65 64 62 63 70 72 75 71 70 70 64 58 67 62 66 52 58 63 51 49 46 47 41 46 42 50 44 45 47 48 52 57
53 57 64 70 75 73 77 71 76 62 59 55 60 61 61 69 70 72 73 72 73 61 68 62 60 61 62 54 55 51 62 59 47 43 40 41 44 40 44 42 39 42 51
49 54 59 70 75 74 78 76 68 69 55 56 58 70 71 78 70 68 74 75 74 63 71 71 72 71 57 51 48 54 62 52 58 50 45 43 41 40 40 42 40 40 45
46 51 57 70 78 76 77 76 78 73 67 60 63 62 60 60 64 72 71 74 74 69 70 66 72 72 70 66 56 58 53 50 46 49 49 53 50 43 40 40 43 42 42

GFSSE_sfc_rhum_078.txt.gz
RH
56 51 79 75 73 74 74 75 75 75 75 75 74 74 76 77 76 75 78 74 76 77 76 76 76 76 73 72 75 74 74 74 76 75 71 72 74 71 69 70 66 50 75
42 47 80 77 74 74 75 76 76 76 74 73 72 72 72 76 77 74 75 74 75 74 71 70 71 76 73 74 75 74 72 74 74 69 73 66 71 75 72 73 70 58 67
40 45 58 79 76 74 76 78 76 78 74 72 72 75 76 71 74 76 74 73 74 73 73 70 72 75 74 74 75 75 73 74 74 68 64 40 47 62 62 64 64 67 69
35 36 46 84 79 74 76 78 75 76 75 76 76 72 72 73 70 73 73 72 72 72 73 73 73 71 73 74 75 74 74 72 67 59 47 36 48 74 74 72 75 74 69
36 36 55 82 79 75 74 78 75 77 75 74 73 73 72 72 70 71 71 72 72 72 73 71 72 70 71 73 73 73 73 67 64 51 52 50 39 64 71 72 65 67 73
35 34 69 79 77 76 75 77 74 76 74 74 73 74 73 73 73 72 72 72 73 73 72 71 69 68 71 73 72 73 73 65 63 45 47 54 44 66 72 70 66 72 75
32 38 48 80 77 76 75 76 74 75 74 74 74 72 73 71 72 71 70 71 71 72 71 70 69 69 74 74 73 74 72 60 41 46 49 48 50 68 65 69 74 75 72
34 35 48 76 76 76 76 76 76 76 76 74 74 74 72 70 68 67 69 68 69 70 71 70 70 72 76 75 74 74 69 59 40 47 53 45 73 74 72 75 74 71 72
33 36 43 46 68 75 76 76 76 75 75 73 73 73 72 71 70 69 64 69 70 71 70 70 73 74 76 75 75 76 71 62 39 41 47 41 77 72 69 67 69 71 72
36 36 41 42 49 48 51 76 74 75 74 72 73 71 70 69 68 67 74 71 69 71 71 72 74 75 75 74 73 73 70 68 34 36 38 54 77 71 72 70 70 69 75
39 38 36 35 44 54 54 62 71 73 72 75 72 74 66 40 42 50 69 69 70 71 69 71 73 70 74 75 73 70 72 31 30 31 39 78 75 70 72 71 75 72 70
40 36 35 41 46 47 38 54 56 50 58 47 51 52 41 45 48 45 60 69 70 69 68 70 69 64 55 36 43 62 29 36 33 32 47 78 74 67 68 73 71 71 70
37 36 38 51 50 44 54 42 40 40 45 50 57 49 48 43 42 37 44 44 47 60 41 48 46 37 45 38 35 31 34 32 31 31 58 76 71 70 72 68 70 73 74
41 41 39 47 51 46 42 39 39 40 40 40 48 56 53 42 45 46 41 46 46 39 48 44 41 50 49 47 40 38 32 28 29 31 56 76 72 69 72 67 69 70 70
42 41 42 49 57 54 53 44 41 43 36 41 43 51 44 42 51 46 50 43 44 42 41 45 45 47 48 43 41 42 36 35 35 32 38 71 74 70 69 68 68 70 69
42 44 44 49 55 53 54 58 51 42 44 40 41 48 55 42 50 47 48 45 44 41 42 44 49 44 41 40 47 44 40 37 43 41 36 50 73 76 73 71 71 69 69
41 44 48 49 49 56 59 57 48 44 39 41 44 56 56 51 58 56 46 45 44 51 53 49 46 43 37 37 46 43 38 41 40 43 36 36 49 74 74 74 72 70 70
40 49 50 40 44 52 55 55 45 43 42 42 43 46 56 60 60 58 46 42 45 45 42 41 40 38 37 36 39 36 38 37 42 42 38 38 37 32 67 74 79 79 75
41 50 53 50 47 50 59 51 49 55 44 43 43 43 58 57 59 54 46 45 53 43 40 38 39 42 39 35 34 35 36 35 38 30 40 42 40 36 34 73 71 75 73
40 47 51 49 53 56 53 55 45 44 44 44 43 44 56 52 58 55 47 52 50 41 39 40 50 43 39 37 29 31 32 32 34 32 32 31 35 40 35 45 43 42 76
38 46 53 56 61 56 52 48 45 44 45 44 44 55 57 54 58 62 47 53 51 47 51 52 47 52 36 40 33 30 30 32 31 30 28 28 33 33 35 36 41 36 39
38 46 55 59 64 61 49 49 44 45 41 42 44 54 53 54 61 56 58 52 55 43 58 56 55 38 35 37 38 37 32 32 27 24 26 28 31 28 29 34 38 43 44
36 45 54 61 62 61 55 54 59 57 54 49 48 48 51 55 56 60 60 52 58 54 42 57 52 55 35 42 51 44 57 34 32 28 34 27 35 28 30 32 34 38 43
37 40 50 59 62 60 64 58 65 50 44 40 44 42 48 55 55 59 58 59 63 46 55 53 46 51 56 40 39 35 50 51 37 32 29 28 28 26 31 27 26 30 37
36 38 45 58 65 60 66 64 56 61 42 41 39 58 59 62 55 53 58 60 64 49 60 57 58 61 43 40 35 36 47 37 47 38 31 28 26 26 27 28 27 27 33
35 38 43 59 67 66 65 68 67 61 57 44 48 48 46 45 50 58 54 60 63 55 60 55 57 60 58 53 41 41 34 36 35 36 33 36 32 32 29 28 30 30 31

GFSSE_sfc_rhum_084.txt.gz
RH
64 64 79 78 75 77 76 76 77 77 76 76 77 76 76 78 79 80 80 80 80 79 79 80 78 74 74 74 73 74 72 75 75 74 73 74 74 75 72 69 68 64 74
52 61 80 78 77 76 76 77 76 75 74 74 73 77 75 75 75 78 78 78 77 78 78 75 74 74 74 74 71 72 72 75 77 72 70 70 69 68 70 67 73 69 73
49 58 64 80 78 76 77 77 75 72 72 74 71 72 76 74 74 76 76 75 76 76 72 73 73 74 74 72 71 71 71 73 72 71 58 53 60 68 68 71 75 74 70
42 44 55 81 80 78 77 78 77 76 74 74 75 73 72 74 74 74 74 74 75 75 73 74 74 74 73 73 71 69 69 67 68 60 52 52 58 73 71 71 73 74 71
38 45 65 80 80 77 78 76 76 75 74 75 74 74 74 74 72 72 74 73 74 75 73 72 73 71 70 70 66 68 68 66 65 51 55 67 69 67 68 71 70 75 75
42 50 74 78 77 76 77 76 75 76 75 77 75 74 75 74 72 72 74 73 73 71 71 71 72 71 69 69 69 69 71 70 58 50 55 71 72 68 73 71 70 72 76
44 51 62 79 79 77 76 75 74 74 74 75 74 75 72 72 72 72 73 72 71 70 72 71 73 71 71 71 70 70 69 68 56 55 58 64 75 77 73 73 71 75 71
41 48 58 76 77 77 76 75 75 73 74 76 76 74 73 73 72 72 71 71 70 68 72 74 73 72 72 70 69 67 66 68 48 62 67 71 79 75 69 71 72 77 72
38 46 53 59 72 76 75 74 74 75 74 74 72 74 73 72 71 72 73 70 68 68 70 73 73 73 72 70 68 66 63 67 56 61 57 69 78 69 70 72 76 74 71
34 39 49 58 58 63 63 73 73 73 73 71 72 71 74 70 69 72 76 74 69 68 69 72 73 72 71 70 66 66 67 67 45 58 67 75 78 70 68 67 70 72 71
37 42 45 50 77 71 67 68 71 70 72 71 70 71 75 65 60 62 74 73 68 70 68 71 73 72 69 69 72 69 65 67 48 57 69 80 77 70 74 70 71 71 68
46 57 83 54 55 55 44 70 70 73 67 66 66 75 86 68 60 55 68 73 69 72 72 73 72 80 71 58 64 70 64 55 52 61 74 79 74 69 69 72 73 71 69
50 48 44 57 62 49 58 61 87 78 67 61 66 77 70 58 62 59 69 66 70 69 63 67 72 67 68 68 56 40 41 42 49 58 75 79 75 71 66 68 70 72 68
52 45 40 59 80 64 54 56 64 69 52 54 58 72 79 68 69 75 81 82 85 76 91 89 64 63 54 50 40 43 35 36 46 62 78 79 76 72 66 66 67 66 67
48 44 42 61 75 67 66 69 57 57 47 47 64 66 68 67 76 71 86 83 86 66 88 82 93 61 72 55 49 46 42 47 44 50 68 78 78 74 68 66 64 67 68
44 48 42 51 57 62 67 72 66 61 48 51 53 64 71 70 84 94 90 84 83 69 70 72 82 70 64 56 52 47 48 49 53 52 59 75 79 76 73 70 69 66 65
35 44 47 48 49 61 63 63 67 66 58 50 56 61 66 69 82 91 92 90 77 72 67 87 74 65 64 53 58 53 50 52 49 52 55 60 73 80 75 72 68 69 69
38 50 48 35 49 54 61 66 72 91 81 58 55 61 63 63 64 78 82 77 72 85 77 93 70 69 66 64 63 64 58 52 53 52 54 55 65 57 76 77 75 74 72
44 51 54 50 50 61 68 65 73 73 80 66 65 65 71 64 62 76 78 70 78 90 75 68 71 71 68 66 51 56 56 57 53 39 53 54 48 60 64 80 81 80 74
43 51 56 48 63 69 66 72 67 73 82 70 73 71 69 72 64 71 78 77 86 75 71 66 75 71 71 55 42 42 55 49 52 57 51 43 53 52 56 71 80 74 80
42 52 56 64 71 67 66 65 66 62 69 74 65 68 80 76 68 74 80 76 77 82 67 72 75 76 66 69 72 69 58 47 47 50 47 44 49 45 48 57 65 67 71
46 53 62 67 72 70 64 74 68 71 62 67 73 68 69 73 68 68 79 82 82 84 74 76 71 77 65 69 73 77 74 64 50 39 49 42 44 45 46 47 56 57 65
48 54 62 70 72 72 69 69 71 69 73 72 75 65 62 67 67 78 70 82 85 82 80 76 73 72 76 69 67 67 78 74 76 57 51 50 49 55 51 48 49 58 60
45 49 62 69 73 69 75 70 75 70 70 62 68 76 69 65 66 63 70 75 85 86 83 82 67 72 77 74 71 60 63 61 72 74 58 50 51 41 47 57 48 52 56
39 44 58 69 76 72 75 73 72 77 86 81 78 87 84 75 66 60 71 70 80 84 88 77 71 76 83 75 75 69 68 68 63 73 68 61 59 55 52 56 46 53 52
38 42 55 70 78 75 74 76 78 75 83 93 84 81 84 78 68 72 67 75 78 82 79 79 73 72 78 81 81 76 75 72 69 72 69 62 60 55 53 53 52 52 52

GFSSE_sfc_rhum_087.txt.gz
RH
86 79 80 77 76 78 78 78 77 77 77 80 80 79 79 80 82 82 82 81 82 80 78 77 78 75 73 72 71 73 73 76 78 76 74 72 73 74 76 73 72 69 76
73 74 81 79 76 76 76 75 75 75 74 76 79 78 77 78 78 80 80 80 78 80 76 75 75 74 71 73 72 72 72 76 78 72 69 67 66 71 75 72 71 68 76
73 76 74 82 76 75 76 74 73 72 74 73 76 77 76 76 78 77 75 76 76 77 74 74 74 72 71 72 73 71 71 73 70 65 68 74 68 71 72 73 72 69 72
72 76 78 84 80 78 80 76 76 75 76 75 75 76 76 75 77 75 75 75 74 76 74 74 74 73 72 71 70 69 70 70 68 66 65 66 59 71 74 74 73 71 74
62 74 80 82 81 79 78 77 76 76 76 76 75 74 75 74 74 75 74 74 74 75 75 72 70 70 67 65 68 72 72 72 71 68 70 77 78 72 72 72 74 75 71
70 80 81 79 77 78 77 76 76 76 75 75 75 74 74 74 74 74 74 73 72 70 72 72 71 68 69 70 72 71 72 66 62 67 71 76 80 72 70 70 74 75 75
76 76 78 82 80 77 76 75 76 75 75 75 76 75 74 73 73 73 72 72 72 71 72 71 71 70 72 73 70 72 69 62 57 66 76 82 82 76 72 73 74 71 73
72 74 74 78 78 78 76 74 75 75 75 75 75 73 73 73 73 72 71 71 71 71 73 71 71 71 70 72 70 70 70 65 63 73 76 82 82 72 71 75 75 70 71
67 74 78 78 76 76 76 74 74 75 75 74 73 73 74 74 72 72 71 70 69 70 71 71 71 71 71 70 68 70 71 70 73 71 66 81 78 72 72 76 73 71 72
66 70 75 80 82 84 79 74 75 74 73 73 73 70 73 72 72 71 77 75 69 69 71 70 69 68 67 66 67 70 71 68 67 73 78 85 80 67 68 70 72 71 70
58 64 76 73 86 88 86 74 74 74 74 73 72 71 78 82 76 77 76 74 68 68 68 71 70 70 68 66 67 69 68 71 70 75 85 83 79 74 70 71 71 68 68
65 63 75 70 74 76 64 82 86 78 84 87 86 84 90 84 80 74 74 73 70 69 69 69 72 70 71 76 74 73 75 70 71 80 82 80 78 70 71 74 73 71 69
65 62 65 67 70 67 72 88 94 92 85 81 78 85 84 79 83 86 89 81 85 84 94 80 74 76 86 80 74 70 74 64 72 77 81 82 78 67 70 71 75 71 69
68 69 63 73 85 74 70 77 87 88 83 77 84 78 80 83 82 84 93 93 93 92 92 94 89 80 81 68 64 42 48 57 77 83 88 83 80 69 67 68 69 68 69
60 64 66 67 78 70 68 76 79 81 71 63 68 70 78 88 92 95 92 88 93 91 94 83 85 79 82 58 46 44 49 62 69 79 91 79 83 78 68 67 69 72 70
52 63 67 67 73 70 75 70 62 70 63 66 69 75 73 88 92 95 92 91 93 91 92 90 90 84 67 65 51 48 52 55 55 70 82 86 83 82 75 71 70 68 67
52 59 63 67 66 72 64 73 75 63 69 73 73 67 79 86 89 89 90 93 96 96 88 89 91 76 66 56 57 56 54 55 54 58 70 83 84 79 76 75 77 75 71
52 57 53 50 63 66 73 72 74 88 84 73 73 75 75 79 82 90 90 86 85 93 82 91 85 76 68 71 65 63 63 56 50 62 68 71 81 70 82 81 81 80 73
50 58 60 63 64 72 73 71 72 71 79 79 73 77 70 67 83 89 90 87 83 90 79 79 77 70 71 62 63 68 67 60 57 52 61 67 74 74 78 82 84 83 75
60 63 56 62 70 69 79 85 83 82 87 71 72 80 82 80 70 80 90 87 86 81 74 74 72 72 66 63 48 49 63 61 64 63 56 50 64 68 73 76 88 85 82
58 62 57 71 81 80 85 77 87 80 83 86 76 78 70 83 76 82 88 79 85 82 80 82 82 79 78 74 78 71 69 52 54 64 61 58 56 60 68 76 84 83 78
61 66 75 78 79 76 82 83 78 78 81 77 75 81 76 77 78 80 82 86 74 84 87 77 72 83 79 76 75 82 71 62 59 51 60 52 55 55 56 55 66 73 72
61 70 80 82 79 77 77 74 83 74 85 86 82 78 81 75 77 76 83 87 83 87 81 82 80 73 79 76 72 68 79 77 85 65 53 51 45 60 57 54 57 57 62
58 63 78 82 77 73 83 75 78 77 84 81 92 81 76 73 75 76 78 85 88 88 86 83 77 83 73 80 72 63 70 65 76 69 63 56 52 50 56 58 57 56 58
54 62 76 79 81 76 81 84 82 79 89 92 93 90 88 82 75 70 78 86 84 83 84 86 83 81 85 93 91 83 75 79 69 74 76 57 60 56 55 55 60 58 54
52 58 74 79 85 83 85 81 84 86 85 90 90 94 88 91 84 73 78 88 91 84 76 78 85 79 83 85 92 86 84 71 68 75 78 73 61 59 56 62 47 58 60